2022-098C (53446 NORAD) Tracking and Keplerian Element Data

This shows tracking and keplerian element data for the satellite.

Feedback or suggestion? Click here.




ElementValue
Catalog53446
Name2022-098C
Epoch Orbit1553
Epoch Day325.2956392
Epoch Year2022
RAAN59.8101
Inclination97.5342
Eccentricity0.0009995
Argument of Perigee265.08
Mean Anonmoly179.947
Mean Motion15.09681864
Decay Rate4.162E-05
L11 53446U 22098C 22325.29563920 .00004162 00000+0 26208-3 0 9996
L22 53446 97.5342 59.8101 0009995 265.0800 179.9470 15.09681864 15530



Live tracking and technical data element details for 2022-098C (NORAD 53446). 2022-098C can be tracked NOW for your location showing map with azimuth and elevation plus other details from your city location.







IsCatalogInMostPopularTable: catalog: 53446, numindb: 6
Update: records affected: 1



GetName: 53446 2022-098C

Hit Count: updated at: Thu, 08 Dec 2022 08:58:23 GMT